Weather History for LFSO - November, 2012

Change the Weather History Date:

Friday, November 16, 2012

  Actual Average Record
Temperature  
Mean Temperature 38 °F -  
Max Temperature 44 °F 41 °F 66 °F (2006)
Min Temperature 31 °F 33 °F 21 °F (1999)
Degree Days  
Heating Degree Days 28    
Moisture  
Dew Point 37 °F    
Average Humidity 99    
Maximum Humidity 100    
Minimum Humidity 93    
Precipitation  
Precipitation 0.01 in - - ()
Sea Level Pressure  
Sea Level Pressure 30.05 in    
Wind  
Wind Speed 3 mph ()    
Max Wind Speed 7 mph    
Max Gust Speed -    
Visibility 2.2 miles    
Events Fog    
Averages and records for this station are not official NWS values.
T = Trace of Precipitation, MM = Missing Value Source: Averaged Metar Reports

Daily Weather History Graph

Daily Weather History Graph

Search for Another Location

Airport or City:

Trip Planner

Search our weather history database for the weather conditions in past years. The results will help you decide how hot, cold, wet, or windy it might be!

Date:

Astronomy

Nov. 16, 2012 Rise Set
Actual Time 7:46 AM CET 4:55 PM CET
Civil Twilight 7:11 AM CET 5:29 PM CET
Nautical Twilight 6:33 AM CET 6:07 PM CET
Astronomical Twilight 5:56 AM CET 6:45 PM CET
Moon 10:31 AM CET (11/16) 7:32 PM CET (11/16)
Length of Visible Light 10h 17m
Length of Day
9h 08m
Waxing Crescent, 9% of the Moon is Illuminated
Nov 16
Waxing Crescent
Nov 20
First Quarter
Nov 28
Full
Dec 6
Last Quarter
Dec 13
New

Hourly Weather History & Observations

Time (CET) Temp. Windchill Dew Point Humidity Pressure Visibility Wind Dir Wind Speed Gust Speed Precip Events Conditions
12:00 AM 33.8 °F 30.8 °F 33.8 °F 100% 30.12 in 0.9 mi SSE 3.5 mph - N/A   Overcast
12:30 AM 33.8 °F 30.8 °F 33.8 °F 100% 30.12 in 0.5 mi ESE 3.5 mph - N/A Fog Fog
1:00 AM 32 °F - 32 °F 100% 30.18 in 0 mi SE 3.5 mph - - Fog Heavy Fog
1:00 AM 32.0 °F 28.7 °F 32.0 °F 100% 30.09 in 0.2 mi Variable 3.5 mph - N/A Fog Fog
1:30 AM 32.0 °F 28.7 °F 32.0 °F 100% 30.09 in 0.2 mi SSE 3.5 mph - N/A Fog Light Freezing Fog
2:00 AM 32.0 °F 28.7 °F 32.0 °F 100% 30.09 in 0.1 mi SSE 3.5 mph - N/A Fog Light Freezing Fog
2:30 AM 32.0 °F - 32.0 °F 100% 30.09 in 0.1 mi Variable 2.3 mph - N/A Fog Fog
3:00 AM 32.0 °F - 32.0 °F 100% 30.09 in 0.1 mi Calm Calm - N/A Fog Fog
3:30 AM 33.8 °F - 33.8 °F 100% 30.09 in 0.1 mi Variable 1.2 mph - N/A Fog Fog
4:00 AM 33.8 °F - 33.8 °F 100% 30.09 in 0.2 mi Variable 2.3 mph - N/A Fog Fog
4:30 AM 33.8 °F 28.6 °F 33.8 °F 100% 30.09 in 0.2 mi SSW 5.8 mph - N/A Fog Fog
5:00 AM 33.8 °F 30.8 °F 33.8 °F 100% 30.09 in 0.3 mi Variable 3.5 mph - N/A Fog Fog
5:30 AM 33.8 °F 30.8 °F 33.8 °F 100% 30.06 in - South 3.5 mph - N/A Fog Fog
6:00 AM 33.8 °F - 33.8 °F 100% 30.06 in 0.2 mi Variable 2.3 mph - N/A Fog Fog
6:30 AM 35.6 °F - 35.6 °F 100% 30.06 in 0.2 mi SE 1.2 mph - N/A Fog Fog
7:00 AM 35 °F - 35 °F 100% 30.14 in 0 mi Calm Calm - - Fog Heavy Fog
7:00 AM 35.6 °F - 35.6 °F 100% 30.06 in 0.2 mi Calm Calm - N/A Fog Fog
7:30 AM 35.6 °F - 35.6 °F 100% 30.06 in 0.2 mi Calm Calm - N/A Fog Fog
8:00 AM 35.6 °F - 35.6 °F 100% 30.06 in 0.2 mi Variable 1.2 mph - N/A Fog Fog
8:30 AM 35.6 °F 32.8 °F 35.6 °F 100% 30.06 in - South 3.5 mph - N/A Fog Fog
9:00 AM 35.6 °F 32.8 °F 35.6 °F 100% 30.09 in 0.6 mi Variable 3.5 mph - N/A Fog Fog
9:30 AM 37.4 °F 34.9 °F 37.4 °F 100% 30.09 in 0.7 mi South 3.5 mph - N/A   Overcast
10:00 AM 37.4 °F 33.8 °F 37.4 °F 100% 30.06 in 0.7 mi SSE 4.6 mph - N/A   Overcast
10:30 AM 37.4 °F 32.8 °F 37.4 °F 100% 30.06 in 0.8 mi SSE 5.8 mph - N/A   Overcast
11:00 AM 37.4 °F 34.9 °F 37.4 °F 100% 30.09 in - South 3.5 mph - N/A   Overcast
11:30 AM 39.2 °F 35.9 °F 39.2 °F 100% 30.06 in 6.2 mi South 4.6 mph - N/A   Overcast
12:00 PM 39.2 °F - 39.2 °F 100% 30.06 in 6.2 mi Variable 2.3 mph - N/A   Overcast
12:30 PM 39.2 °F - 39.2 °F 100% 30.06 in 6.2 mi Variable 2.3 mph - N/A   Overcast
1:00 PM 41 °F - 41 °F 99% 30.10 in 18 mi Calm Calm - -   Clear
1:00 PM 41.0 °F - 41.0 °F 100% 30.06 in 6.2 mi Calm Calm - N/A   Overcast
1:30 PM 41.0 °F 39.0 °F 41.0 °F 100% 30.04 in 6.2 mi ESE 3.5 mph - N/A   Overcast
2:00 PM 42.8 °F 41.1 °F 42.8 °F 100% 30.04 in 6.2 mi SSE 3.5 mph - N/A   Partly Cloudy
2:30 PM 44.6 °F 43.1 °F 42.8 °F 93% 30.04 in 6.2 mi Variable 3.5 mph - N/A   Unknown
3:00 PM 44.6 °F 43.1 °F 42.8 °F 93% 30.01 in 6.2 mi Variable 3.5 mph - N/A   Partly Cloudy
3:30 PM 44.6 °F 43.1 °F 42.8 °F 93% 30.01 in 6.2 mi South 3.5 mph - N/A   Unknown
4:00 PM 44.6 °F - 42.8 °F 93% 30.01 in 6.2 mi Variable 2.3 mph - N/A   Unknown
4:30 PM 42.8 °F - 41.0 °F 93% 30.01 in 6.2 mi Variable 2.3 mph - N/A   Unknown
5:00 PM 41.0 °F 36.4 °F 41.0 °F 100% 30.01 in 6.2 mi SSE 6.9 mph - N/A   Unknown
5:30 PM 39.2 °F 35.0 °F 39.2 °F 100% 30.01 in 5.0 mi SE 5.8 mph - N/A   Partly Cloudy
6:00 PM 39.2 °F 34.2 °F 39.2 °F 100% 30.01 in 0.2 mi SE 6.9 mph - N/A Fog Fog
6:30 PM 39.2 °F 37.0 °F 39.2 °F 100% 30.01 in 0.2 mi SE 3.5 mph - N/A Fog Fog
7:00 PM 39 °F - 39 °F 100% 30.06 in 0 mi SE 5.8 mph - - Fog Heavy Fog
7:00 PM 39.2 °F 35.0 °F 39.2 °F 100% 30.01 in 0.3 mi SE 5.8 mph - N/A Fog Fog
7:30 PM 39.2 °F 37.0 °F 39.2 °F 100% 30.01 in 0.1 mi South 3.5 mph - N/A Fog Fog
8:00 PM 39.2 °F - 39.2 °F 100% 30.01 in 0.1 mi Variable 2.3 mph - N/A Fog Fog
8:30 PM 39.2 °F - 39.2 °F 100% 30.01 in 0.2 mi SSE 2.3 mph - N/A Fog Fog
9:00 PM 39.2 °F 35.9 °F 39.2 °F 100% 30.01 in 0.2 mi South 4.6 mph - N/A Fog Fog
9:30 PM 39.2 °F 35.9 °F 39.2 °F 100% 30.01 in 0.2 mi South 4.6 mph - N/A Fog Fog
10:00 PM 39.2 °F 37.0 °F 39.2 °F 100% 30.01 in 0.2 mi SSE 3.5 mph - N/A Fog Fog
10:30 PM 39.2 °F 35.0 °F 39.2 °F 100% 30.01 in 0.2 mi SE 5.8 mph - N/A Fog Fog
11:00 PM 39.2 °F 35.0 °F 39.2 °F 100% 29.98 in 0.2 mi SSE 5.8 mph - N/A Fog Fog
11:30 PM 39.2 °F 35.9 °F 39.2 °F 100% 29.98 in 0.1 mi SSE 4.6 mph - N/A Fog Fog